SCP
0 0 0 0 0 0 0 0 0 0 0 -0 -0 -0 -0 0 0 -0 -0 -0 -0 -0 -0 -0 -0 -0 -0 -0 -0 -0 -0 -0 -0 0 -0 -0 -0 0 -0 -0 -0 -0 -0 -0 -0 -0 -0 -0 -0
0 0 0 0 0 0 -0 -0 0 0 0 0 -0 0 0 -0 -0 0 0 0 -0 -0 -0 -0 -0 -0 -0 -0 -0 -0 -0 -0 -0 -0 -0 -0 -0 -0 -0 -0 -0 -0 -0 -0 -0 -0 -0 -0 -0
0 0 0 0 0 -0 -0 -0 -0 -0 0 0 0 -0 0 -0 0 -0 -0 -0 -0 -0 -0 -0 -0 -0 -0 -0 -0 -0 -0 -0 -0 -0 -0 -0 -0 -0 -0 -0 -0 -0 -0 -0 -0 -0 -0 -0 -0
0 0 0 0 0 -0 0 0 -0 -0 -0 0 -0 0 0 0 0 0 -0 -0 -0 -0 -0 -0 -0 -0 -0 -0 -0 -0 -0 -0 -0 -0 -0 -0 -0 -0 -0 -0 -0 -0 -0 -0 -0 -0 -0 -0 -0
0 0 0 0 0 -0 0 -0 -0 -0 -0 -0 -0 -0 0 0 -0 -0 -0 -0 -0 -0 -0 -0 -0 -0 -0 -0 -0 -0 -0 -0 -0 -0 -0 -0 -0 -0 -0 -0 -0 -0 -0 -0 -0 -0 -0 -0 -0
0 0 0 0 0 -0 0 -0 -0 -0 -0 -0 -0 0 -0 -0 -0 -0 -0 -0 -0 -0 -0 -0 -0 -0 -0 -0 -0 -0 -0 -0 -0 -0 -0 -0 -0 -0 -0 -0 -0 -0 -0 -0 -0 -0 -0 -0 -0
0 -0 0 -0 -0 -0 0 -0 -0 -0 -0 -0 -0 0 0 -0 -0 -0 -0 -0 -0 -0 -0 -0 -0 -0 -0 -0 -0 -0 -0 -0 -0 -0 -0 -0 -0 -0 -0 -0 -0 -0 -0 -0 -0 -0 -0 -0 -0
0 0 -0 0 0 0 0 0 0 -0 -0 -0 -0 -0 -0 -0 -0 -0 -0 -0 -0 -0 -0 -0 -0 -0 -0 -0 -0 -0 -0 -0 -0 -0 -0 -0 -0 -0 -0 -0 -0 -0 -0 -0 -0 -0 -0 -0 -0
0 0 0 0 0 0 0 0 0 0 -0 0 -0 -0 -0 -0 -0 -0 -0 -0 0 -0 -0 -0 -0 0 0 0 0 -0 -0 -0 -0 -0 -0 -0 0 0 0 0 -0 -0 -0 -0 -0 -0 -0 -0 0
0 0 0 0 0 0 0 0 0 0 0 0 -0 -0 0 -0 -0 -0 -0 -0 -0 -0 -0 0 -0 -0 0 0 0 0 0 0 0 0 0 0 0 0 0 0 0 -0 -0 -0 -0 -0 0 0 0
0 0 0 0 0 0 0 0 0 0 0 -0 -0 -0 -0 -0 -0 -0 -0 -0 -0 -0 0 0 0 0 0 0 0 0 0 0 0 0 0 0 0 0 0 0 0 0 0 0 0 0 0 0 0
0 0 0 0 0 0 0 0 0 0 0 0 0 -0 -0 -0 -0 -0 -0 -0 0 0 0 0 0 0 0 0 0 0 0 0 0 0 0 0 0 0 0 0 0 0 0 0 0 0 0 0 0
0 0 0 0 0 0 0 0 0 0 0 -0 0 0 -0 -0 -0 -0 -0 0 0 0 0 0 0 0 0 0 0 0 0 0 0 0 0 0 0 0 0 0 0 0 0 0 0 0 0 0 0
0 0 0 0 0 0 0 0 0 0 0 -0 0 0 0 -0 -0 0 0 0 0 0 0 0 0 0 0 1 0 0 0 0 0 0 0 0 0 0 0 0 0 0 0 0 0 0 0 0 0
0 0 0 0 0 0 0 0 0 0 0 0 0 0 0 0 0 0 0 0 0 0 0 0 0 0 0 0 0 0 0 0 0 0 0 0 0 0 0 0 0 0 0 0 0 0 0 0 0
0 0 0 0 0 0 0 0 0 0 0 0 0 0 0 0 0 0 0 0 0 0 0 0 0 0 0 0 0 0 0 0 0 0 0 0 0 0 0 0 0 0 0 0 0 0 0 0 0
0 0 0 0 0 0 0 0 0 0 0 0 0 0 0 0 0 0 0 0 0 0 0 0 0 0 0 0 0 0 0 0 0 0 0 0 0 0 0 0 0 0 0 0 0 0 0 0 0
0 0 0 0 0 0 0 0 0 0 0 0 0 0 0 0 0 0 0 0 0 0 0 0 0 0 0 0 0 0 0 0 0 0 0 0 0 0 0 0 0 0 0 0 0 0 0 0 0
0 0 0 0 0 0 0 0 0 0 0 0 0 0 0 0 0 0 0 0 0 0 0 0 0 0 0 0 0 0 0 0 0 0 0 0 0 0 0 0 0 0 0 0 0 0 0 0 0
0 0 0 0 0 0 0 -0 -0 0 0 0 0 -0 0 0 0 0 0 0 0 0 0 0 0 0 0 0 0 0 0 0 0 0 0 0 0 0 0 0 0 0 0 0 0 0 0 0 0
0 0 0 0 0 0 0 -0 -0 -0 0 0 -0 -0 0 0 0 0 0 0 0 0 0 0 0 0 0 0 0 0 0 0 0 0 0 0 0 0 0 0 0 0 0 0 0 0 0 0 0
0 0 0 0 0 0 0 -0 -0 0 -0 0 0 0 0 0 0 0 0 0 0 0 0 0 0 0 0 0 0 0 0 0 0 0 0 0 0 0 0 0 0 0 0 0 0 0 0 0 0
0 0 0 0 0 0 0 0 -0 -0 0 0 0 0 0 0 0 0 0 0 0 0 0 0 0 0 0 0 0 0 0 0 0 0 0 0 0 0 0 0 0 0 0 0 0 0 0 0 0
0 0 0 0 0 0 0 0 -0 0 0 -0 0 0 0 0 0 0 0 0 0 0 0 0 0 0 0 0 0 0 0 0 0 0 0 0 0 0 0 0 0 0 0 0 0 0 0 0 0
0 0 0 0 0 0 0 0 0 0 0 0 0 0 0 0 0 0 0 0 0 0 0 0 0 0 0 0 0 0 0 0 0 0 0 0 0 0 0 0 0 0 0 0 0 0 0 0 0
0 0 0 0 0 0 0 0 0 0 0 0 0 0 0 0 0 0 0 0 0 0 0 0 0 0 0 0 0 0 0 0 0 0 0 0 0 0 0 0 0 0 0 0 0 0 0 0 0
0 0 0 0 0 0 0 0 0 0 0 0 0 0 0 -0 -0 0 0 0 0 0 0 0 0 0 0 0 0 0 0 0 0 0 0 0 0 0 0 0 0 0 0 0 0 0 0 0 0
0 0 0 0 0 0 0 0 0 0 0 0 0 0 0 0 0 0 0 0 0 0 0 0 0 0 0 0 0 0 0 0 0 0 0 0 0 0 0 0 0 0 0 0 0 0 0 0 0
0 0 0 0 0 0 0 0 0 0 0 0 0 0 0 0 0 0 0 0 0 0 0 0 0 0 0 0 0 0 0 0 0 0 0 0 0 0 0 0 0 0 0 0 0 0 0 0 0
0 0 0 0 0 0 0 0 0 0 0 0 0 0 0 0 0 0 0 0 0 0 0 0 0 0 -0 0 0 0 0 0 0 0 0 0 0 0 0 0 0 0 0 0 0 0 0 0 0
Wind_Speed_500mb
8 2 5 9 4 7 6 10 12 12 9 9 19 14 5 27 11 7 26 21 32 36 37 29 25 25 22 15 15 18 18 21 23 23 24 24 23 23 31 30 36 28 21 18 24 31 33 33 37
5 4 5 12 5 7 8 17 7 12 24 17 10 3 2 8 13 27 40 32 33 35 34 33 30 27 23 16 15 16 17 19 20 22 23 23 22 22 26 34 34 21 12 16 26 30 32 35 40
3 3 6 5 6 9 7 8 19 24 16 10 8 2 9 10 14 37 22 36 41 35 34 34 30 28 23 18 15 14 14 15 18 19 21 21 22 22 21 30 30 19 13 18 25 28 31 33 39
5 5 10 4 15 16 13 11 37 20 5 5 4 13 11 16 19 24 33 40 37 29 30 32 30 29 24 19 16 14 13 13 14 16 18 19 18 19 19 23 25 17 12 21 24 26 29 32 38
4 8 6 7 9 9 11 16 17 13 20 18 5 9 11 20 26 24 40 40 38 33 30 29 31 29 25 21 16 14 13 13 13 14 16 17 17 17 16 17 16 13 18 20 23 24 27 30 34
9 7 7 10 5 14 8 11 10 15 18 20 6 8 12 10 20 33 40 39 34 37 32 32 32 29 25 23 18 14 12 11 11 11 13 14 15 15 16 15 16 17 20 21 23 25 27 30 32
7 5 13 16 5 4 10 13 9 12 20 13 5 3 14 13 22 35 39 35 32 32 33 32 36 33 29 26 23 19 15 12 11 9 11 13 14 15 16 16 16 18 20 21 23 25 27 30 32
9 5 12 15 7 4 13 13 2 7 5 20 13 6 10 22 28 33 36 39 33 30 33 34 38 36 34 31 26 23 20 16 12 10 10 12 15 17 17 17 17 18 19 20 21 23 25 29 32
5 5 7 14 12 2 23 10 6 6 10 10 8 5 15 23 35 34 33 36 39 36 36 34 36 38 36 33 30 27 24 21 17 15 12 11 12 16 18 19 19 18 18 19 21 23 25 28 26
7 5 11 12 18 11 16 11 18 6 14 13 15 19 25 27 28 41 43 45 47 48 41 38 38 34 34 33 34 32 30 27 22 21 17 14 9 10 14 17 17 17 17 17 20 24 26 26 23
9 5 5 20 18 13 13 6 14 10 11 28 30 35 30 32 30 42 44 48 52 46 46 45 43 42 43 39 37 37 34 32 31 28 26 16 7 7 9 8 8 8 12 12 14 15 16 18 17
7 16 7 8 7 5 4 8 10 25 27 6 14 12 37 38 38 41 44 48 51 49 48 49 49 48 46 43 45 42 39 38 37 37 37 27 21 14 14 12 10 6 7 7 3 4 9 12 16
7 12 3 1 1 3 7 12 14 28 27 31 29 18 32 35 38 39 41 42 46 52 56 55 54 50 49 50 49 47 46 44 41 41 43 37 28 22 24 24 16 15 14 12 9 11 10 12 14
8 9 7 8 10 8 5 12 13 11 12 35 31 36 32 38 39 40 44 51 55 55 56 60 62 58 57 60 56 49 51 45 46 47 50 45 39 33 30 27 25 24 20 20 20 20 16 14 16
3 7 15 22 15 3 6 13 20 52 31 24 26 40 38 41 43 48 51 53 60 63 62 66 69 68 71 68 61 54 50 47 48 57 52 50 50 45 38 35 32 33 31 28 27 29 26 20 18
9 6 5 5 25 8 7 11 17 5 25 37 31 32 41 42 50 51 54 57 57 65 70 71 75 73 67 73 71 66 63 58 56 54 55 55 57 54 52 46 41 40 42 41 38 34 31 26 18
11 9 13 9 18 10 13 9 8 4 8 20 25 33 39 45 47 50 56 62 67 66 74 78 76 76 72 71 73 70 66 67 67 65 57 52 59 60 61 53 51 49 50 49 45 40 36 34 26
12 10 12 10 12 3 11 19 22 48 42 42 41 42 43 43 47 51 57 58 69 71 73 77 75 78 74 75 73 73 75 68 71 72 68 65 60 61 59 62 62 61 61 56 51 50 45 41 35
12 12 14 5 8 8 14 20 20 37 46 43 48 53 54 58 55 54 58 59 60 73 71 74 78 81 78 79 82 81 81 78 80 81 77 66 69 65 68 64 66 71 72 63 52 61 57 51 52
11 11 16 15 15 4 13 23 21 25 41 56 52 59 61 60 53 50 59 64 65 66 75 78 82 82 81 80 82 84 81 81 81 81 80 74 79 79 76 75 69 74 79 62 60 66 67 64 62
11 14 15 15 3 9 9 15 19 21 54 54 56 66 69 70 63 55 47 63 69 68 71 80 84 84 84 81 81 82 78 79 85 89 85 81 80 86 89 82 80 72 81 76 80 63 78 70 67
12 7 17 10 9 6 6 12 14 19 18 18 49 59 59 52 48 45 43 44 68 71 63 68 78 84 85 81 83 86 89 91 91 84 75 72 81 89 91 87 85 78 76 81 79 69 89 74 73
6 8 8 3 6 10 10 7 14 19 14 19 30 51 41 41 36 24 25 31 45 52 61 57 63 75 80 81 81 83 86 87 87 80 74 70 71 86 94 93 85 83 82 86 76 85 89 87 87
16 9 7 1 2 12 18 18 10 13 9 9 22 31 19 14 21 18 23 34 40 45 50 56 57 65 73 78 80 82 84 85 82 81 80 74 68 75 90 95 97 89 90 92 90 83 97 84 99
7 10 2 5 2 15 5 6 16 6 6 1 12 33 17 18 14 18 21 19 25 34 43 47 50 56 63 71 77 79 82 81 80 79 82 75 68 69 80 90 91 91 89 86 84 84 86 85 96
19 16 11 14 9 10 8 15 11 7 4 16 25 33 21 17 26 27 28 29 26 25 26 31 39 46 54 59 67 70 74 77 76 71 78 76 71 65 70 84 84 89 88 86 88 85 79 103 99
12 15 9 7 3 5 10 15 21 13 16 30 41 48 47 22 18 29 23 32 33 29 26 22 20 26 36 41 50 55 62 68 71 71 74 78 71 65 66 67 71 79 76 82 75 90 90 82 97
8 5 6 4 6 10 13 11 20 19 26 24 8 17 16 13 13 22 24 26 20 20 17 15 14 13 19 25 32 39 42 50 58 64 73 73 72 67 62 60 63 69 76 77 83 79 78 76 83
6 6 7 10 9 9 10 13 7 11 6 13 13 18 18 19 12 18 15 14 15 16 17 15 10 2 10 17 23 27 32 38 45 54 65 69 67 64 59 56 59 61 68 74 75 84 84 84 84
16 18 19 9 7 8 7 33 9 13 12 12 12 12 18 17 9 16 13 13 16 17 15 7 8 12 19 24 26 28 30 34 40 48 55 62 62 57 54 55 58 59 64 69 75 71 75 87 88
Wind_Direction_500mb
219 202 332 305 250 218 127 87 78 92 116 56 66 41 39 51 21 107 137 140 178 172 167 164 161 154 150 137 103 89 84 79 78 79 84 95 99 95 105 104 110 100 98 98 89 86 83 85 91
233 105 317 273 237 266 74 116 133 110 89 101 89 24 305 91 64 132 150 151 170 175 169 169 164 161 156 143 122 107 97 90 86 83 83 86 94 99 105 100 106 115 123 107 91 87 85 91 95
153 129 276 233 282 33 67 65 113 83 107 136 132 177 24 78 104 140 171 156 154 180 172 171 169 164 161 155 135 118 103 95 92 86 83 85 90 94 101 111 118 127 125 96 91 85 88 94 97
106 252 254 286 290 67 41 64 106 118 103 129 19 121 105 105 133 160 163 155 158 175 179 170 175 170 169 170 150 136 124 115 102 85 79 78 86 95 111 121 141 141 102 90 89 88 93 99 102
178 272 271 215 297 81 89 64 125 162 145 149 164 128 107 136 174 168 154 157 164 163 192 188 181 175 175 180 168 155 140 128 112 97 85 79 82 94 105 116 123 111 99 96 93 93 98 101 105
258 266 266 232 158 101 97 134 167 167 129 99 161 285 104 191 188 156 155 159 171 175 185 193 186 182 182 187 184 176 157 146 133 111 93 83 87 97 101 107 106 105 101 98 97 101 104 105 108
264 208 259 295 6 73 132 144 196 199 133 168 110 322 132 184 158 159 160 167 182 195 197 197 191 188 189 193 194 191 183 174 162 133 101 92 94 98 102 102 99 100 102 103 105 109 111 113 115
283 281 259 267 282 13 103 148 187 228 121 139 152 6 135 186 168 169 172 170 186 202 203 199 198 195 194 196 197 201 197 195 183 159 129 112 108 104 101 102 102 103 107 110 114 116 118 122 125
274 297 235 256 246 15 124 175 162 228 119 157 193 166 114 180 182 169 178 181 185 202 205 208 209 201 203 204 202 202 204 204 195 184 165 139 127 116 107 100 99 101 107 113 117 120 123 129 129
222 215 258 36 30 40 129 212 153 167 217 196 192 225 158 194 193 177 183 188 193 205 211 205 209 212 208 211 208 203 206 205 208 199 180 161 158 137 124 110 97 97 102 111 121 126 128 132 132
213 244 16 32 52 48 340 208 266 178 255 211 214 221 205 204 195 189 198 196 198 215 202 212 213 210 207 210 211 206 208 209 207 203 201 186 214 198 180 150 109 103 111 113 130 142 148 157 150
293 238 335 35 49 61 289 299 280 224 237 323 206 208 215 209 209 204 207 201 202 207 207 206 213 211 209 212 212 214 210 214 215 208 210 205 200 226 226 226 200 176 169 124 120 176 187 185 173
231 269 77 93 35 201 287 265 260 274 261 255 258 233 206 221 218 216 214 213 212 210 208 213 208 214 212 213 215 217 217 216 222 219 212 213 210 227 231 230 223 226 233 239 242 240 220 210 199
6 348 253 191 204 201 218 264 238 265 265 243 249 249 218 228 228 221 216 215 213 221 218 216 217 208 212 217 220 220 221 222 223 227 220 220 218 235 234 234 228 233 237 248 243 216 217 231 217
271 270 219 221 198 172 198 278 231 256 245 241 231 239 245 231 227 226 229 225 219 217 225 215 225 222 217 215 220 221 224 228 228 230 232 228 227 225 235 235 234 233 224 247 248 226 220 210 224
233 207 232 344 146 167 163 263 285 259 227 240 233 245 247 245 233 238 232 234 231 221 220 224 224 232 223 219 222 221 224 232 237 235 236 232 230 233 233 230 232 229 228 227 230 228 215 210 237
207 264 203 156 177 135 185 277 50 11 290 274 267 259 251 246 242 244 240 231 234 229 225 229 230 230 227 225 223 226 226 225 230 239 237 233 231 230 235 234 234 229 230 231 233 225 222 227 224
228 215 245 234 185 184 216 253 278 285 275 264 259 258 257 253 244 245 250 250 230 235 230 232 231 233 230 225 226 226 228 229 230 233 236 236 236 231 232 233 230 235 232 229 239 227 219 227 226
306 316 326 355 154 165 230 258 255 269 272 267 263 263 261 259 256 252 249 253 246 235 233 229 228 232 231 226 226 227 230 229 230 238 238 232 238 239 244 239 236 232 234 244 240 228 216 212 220
199 269 283 285 107 168 279 275 268 256 258 250 253 259 260 263 262 255 248 244 248 243 233 228 231 233 235 232 233 232 235 236 242 242 246 242 233 238 242 240 238 237 237 246 237 243 208 212 217
229 228 257 255 208 227 281 274 257 249 243 257 258 259 263 264 265 259 257 245 245 245 239 232 233 236 238 236 233 233 233 237 240 243 244 242 237 237 236 241 243 241 238 241 246 249 220 231 221
256 282 246 265 338 234 67 285 292 301 284 236 251 261 260 271 271 266 250 248 244 249 252 246 238 234 237 236 235 234 235 235 243 250 251 248 239 234 237 238 243 242 243 237 240 251 230 229 231
224 13 45 29 275 299 197 261 260 228 253 255 250 261 265 273 261 246 241 246 252 251 251 248 243 237 235 237 237 237 238 240 245 248 249 249 244 233 235 236 238 243 236 248 239 250 232 243 239
128 91 76 73 209 275 172 198 214 219 224 231 242 266 246 228 251 248 243 241 236 243 240 247 244 240 237 238 239 239 241 244 244 247 248 250 247 237 232 235 238 238 243 236 247 244 237 239 237
163 142 243 308 159 239 89 287 233 285 230 232 280 287 272 283 255 264 271 254 242 243 247 249 245 239 236 236 238 240 244 246 247 249 253 252 250 243 237 237 238 235 236 240 242 240 240 249 247
198 176 171 203 193 272 351 239 260 220 344 310 299 289 286 276 280 282 273 264 256 250 246 242 238 234 233 236 240 243 245 249 250 249 255 256 254 253 250 245 238 237 239 244 244 244 250 251 247
190 216 230 327 90 8 227 271 285 226 215 252 270 283 286 291 273 288 268 262 255 253 247 247 245 237 237 243 245 248 249 251 251 251 251 259 259 255 252 248 241 241 242 239 246 251 246 252 245
175 197 100 241 196 232 263 269 248 298 288 252 313 313 351 325 299 262 256 252 239 227 220 208 201 211 230 242 251 257 258 256 254 251 252 256 261 261 257 249 244 246 242 246 245 248 248 243 244
134 228 218 169 181 176 262 257 168 136 107 60 37 359 340 333 320 272 265 233 213 193 181 171 161 216 291 269 263 268 269 265 259 254 254 256 259 259 259 254 252 253 244 242 250 253 240 245 238
216 216 193 167 234 218 220 263 139 116 98 56 21 33 350 346 334 259 251 217 203 186 171 172 315 298 307 292 286 278 273 272 269 262 258 259 258 256 255 254 250 248 246 247 248 245 255 244 240
Wind_Speed_850mb
8 2 5 9 4 7 6 10 12 12 9 9 19 14 5 27 11 7 26 21 32 36 37 29 25 25 22 15 15 18 18 21 23 23 24 24 23 23 31 30 36 28 21 18 24 31 33 33 37
5 4 5 12 5 7 8 17 7 12 24 17 10 3 2 8 13 27 40 32 33 35 34 33 30 27 23 16 15 16 17 19 20 22 23 23 22 22 26 34 34 21 12 16 26 30 32 35 40
3 3 6 5 6 9 7 8 19 24 16 10 8 2 9 10 14 37 22 36 41 35 34 34 30 28 23 18 15 14 14 15 18 19 21 21 22 22 21 30 30 19 13 18 25 28 31 33 39
5 5 10 4 15 16 13 11 37 20 5 5 4 13 11 16 19 24 33 40 37 29 30 32 30 29 24 19 16 14 13 13 14 16 18 19 18 19 19 23 25 17 12 21 24 26 29 32 38
4 8 6 7 9 9 11 16 17 13 20 18 5 9 11 20 26 24 40 40 38 33 30 29 31 29 25 21 16 14 13 13 13 14 16 17 17 17 16 17 16 13 18 20 23 24 27 30 34
9 7 7 10 5 14 8 11 10 15 18 20 6 8 12 10 20 33 40 39 34 37 32 32 32 29 25 23 18 14 12 11 11 11 13 14 15 15 16 15 16 17 20 21 23 25 27 30 32
7 5 13 16 5 4 10 13 9 12 20 13 5 3 14 13 22 35 39 35 32 32 33 32 36 33 29 26 23 19 15 12 11 9 11 13 14 15 16 16 16 18 20 21 23 25 27 30 32
9 5 12 15 7 4 13 13 2 7 5 20 13 6 10 22 28 33 36 39 33 30 33 34 38 36 34 31 26 23 20 16 12 10 10 12 15 17 17 17 17 18 19 20 21 23 25 29 32
5 5 7 14 12 2 23 10 6 6 10 10 8 5 15 23 35 34 33 36 39 36 36 34 36 38 36 33 30 27 24 21 17 15 12 11 12 16 18 19 19 18 18 19 21 23 25 28 26
7 5 11 12 18 11 16 11 18 6 14 13 15 19 25 27 28 41 43 45 47 48 41 38 38 34 34 33 34 32 30 27 22 21 17 14 9 10 14 17 17 17 17 17 20 24 26 26 23
9 5 5 20 18 13 13 6 14 10 11 28 30 35 30 32 30 42 44 48 52 46 46 45 43 42 43 39 37 37 34 32 31 28 26 16 7 7 9 8 8 8 12 12 14 15 16 18 17
7 16 7 8 7 5 4 8 10 25 27 6 14 12 37 38 38 41 44 48 51 49 48 49 49 48 46 43 45 42 39 38 37 37 37 27 21 14 14 12 10 6 7 7 3 4 9 12 16
7 12 3 1 1 3 7 12 14 28 27 31 29 18 32 35 38 39 41 42 46 52 56 55 54 50 49 50 49 47 46 44 41 41 43 37 28 22 24 24 16 15 14 12 9 11 10 12 14
8 9 7 8 10 8 5 12 13 11 12 35 31 36 32 38 39 40 44 51 55 55 56 60 62 58 57 60 56 49 51 45 46 47 50 45 39 33 30 27 25 24 20 20 20 20 16 14 16
3 7 15 22 15 3 6 13 20 52 31 24 26 40 38 41 43 48 51 53 60 63 62 66 69 68 71 68 61 54 50 47 48 57 52 50 50 45 38 35 32 33 31 28 27 29 26 20 18
9 6 5 5 25 8 7 11 17 5 25 37 31 32 41 42 50 51 54 57 57 65 70 71 75 73 67 73 71 66 63 58 56 54 55 55 57 54 52 46 41 40 42 41 38 34 31 26 18
11 9 13 9 18 10 13 9 8 4 8 20 25 33 39 45 47 50 56 62 67 66 74 78 76 76 72 71 73 70 66 67 67 65 57 52 59 60 61 53 51 49 50 49 45 40 36 34 26
12 10 12 10 12 3 11 19 22 48 42 42 41 42 43 43 47 51 57 58 69 71 73 77 75 78 74 75 73 73 75 68 71 72 68 65 60 61 59 62 62 61 61 56 51 50 45 41 35
12 12 14 5 8 8 14 20 20 37 46 43 48 53 54 58 55 54 58 59 60 73 71 74 78 81 78 79 82 81 81 78 80 81 77 66 69 65 68 64 66 71 72 63 52 61 57 51 52
11 11 16 15 15 4 13 23 21 25 41 56 52 59 61 60 53 50 59 64 65 66 75 78 82 82 81 80 82 84 81 81 81 81 80 74 79 79 76 75 69 74 79 62 60 66 67 64 62
11 14 15 15 3 9 9 15 19 21 54 54 56 66 69 70 63 55 47 63 69 68 71 80 84 84 84 81 81 82 78 79 85 89 85 81 80 86 89 82 80 72 81 76 80 63 78 70 67
12 7 17 10 9 6 6 12 14 19 18 18 49 59 59 52 48 45 43 44 68 71 63 68 78 84 85 81 83 86 89 91 91 84 75 72 81 89 91 87 85 78 76 81 79 69 89 74 73
6 8 8 3 6 10 10 7 14 19 14 19 30 51 41 41 36 24 25 31 45 52 61 57 63 75 80 81 81 83 86 87 87 80 74 70 71 86 94 93 85 83 82 86 76 85 89 87 87
16 9 7 1 2 12 18 18 10 13 9 9 22 31 19 14 21 18 23 34 40 45 50 56 57 65 73 78 80 82 84 85 82 81 80 74 68 75 90 95 97 89 90 92 90 83 97 84 99
7 10 2 5 2 15 5 6 16 6 6 1 12 33 17 18 14 18 21 19 25 34 43 47 50 56 63 71 77 79 82 81 80 79 82 75 68 69 80 90 91 91 89 86 84 84 86 85 96
19 16 11 14 9 10 8 15 11 7 4 16 25 33 21 17 26 27 28 29 26 25 26 31 39 46 54 59 67 70 74 77 76 71 78 76 71 65 70 84 84 89 88 86 88 85 79 103 99
12 15 9 7 3 5 10 15 21 13 16 30 41 48 47 22 18 29 23 32 33 29 26 22 20 26 36 41 50 55 62 68 71 71 74 78 71 65 66 67 71 79 76 82 75 90 90 82 97
8 5 6 4 6 10 13 11 20 19 26 24 8 17 16 13 13 22 24 26 20 20 17 15 14 13 19 25 32 39 42 50 58 64 73 73 72 67 62 60 63 69 76 77 83 79 78 76 83
6 6 7 10 9 9 10 13 7 11 6 13 13 18 18 19 12 18 15 14 15 16 17 15 10 2 10 17 23 27 32 38 45 54 65 69 67 64 59 56 59 61 68 74 75 84 84 84 84
16 18 19 9 7 8 7 33 9 13 12 12 12 12 18 17 9 16 13 13 16 17 15 7 8 12 19 24 26 28 30 34 40 48 55 62 62 57 54 55 58 59 64 69 75 71 75 87 88
Wind_Direction_850mb
219 202 332 305 250 218 127 87 78 92 116 56 66 41 39 51 21 107 137 140 178 172 167 164 161 154 150 137 103 89 84 79 78 79 84 95 99 95 105 104 110 100 98 98 89 86 83 85 91
233 105 317 273 237 266 74 116 133 110 89 101 89 24 305 91 64 132 150 151 170 175 169 169 164 161 156 143 122 107 97 90 86 83 83 86 94 99 105 100 106 115 123 107 91 87 85 91 95
153 129 276 233 282 33 67 65 113 83 107 136 132 177 24 78 104 140 171 156 154 180 172 171 169 164 161 155 135 118 103 95 92 86 83 85 90 94 101 111 118 127 125 96 91 85 88 94 97
106 252 254 286 290 67 41 64 106 118 103 129 19 121 105 105 133 160 163 155 158 175 179 170 175 170 169 170 150 136 124 115 102 85 79 78 86 95 111 121 141 141 102 90 89 88 93 99 102
178 272 271 215 297 81 89 64 125 162 145 149 164 128 107 136 174 168 154 157 164 163 192 188 181 175 175 180 168 155 140 128 112 97 85 79 82 94 105 116 123 111 99 96 93 93 98 101 105
258 266 266 232 158 101 97 134 167 167 129 99 161 285 104 191 188 156 155 159 171 175 185 193 186 182 182 187 184 176 157 146 133 111 93 83 87 97 101 107 106 105 101 98 97 101 104 105 108
264 208 259 295 6 73 132 144 196 199 133 168 110 322 132 184 158 159 160 167 182 195 197 197 191 188 189 193 194 191 183 174 162 133 101 92 94 98 102 102 99 100 102 103 105 109 111 113 115
283 281 259 267 282 13 103 148 187 228 121 139 152 6 135 186 168 169 172 170 186 202 203 199 198 195 194 196 197 201 197 195 183 159 129 112 108 104 101 102 102 103 107 110 114 116 118 122 125
274 297 235 256 246 15 124 175 162 228 119 157 193 166 114 180 182 169 178 181 185 202 205 208 209 201 203 204 202 202 204 204 195 184 165 139 127 116 107 100 99 101 107 113 117 120 123 129 129
222 215 258 36 30 40 129 212 153 167 217 196 192 225 158 194 193 177 183 188 193 205 211 205 209 212 208 211 208 203 206 205 208 199 180 161 158 137 124 110 97 97 102 111 121 126 128 132 132
213 244 16 32 52 48 340 208 266 178 255 211 214 221 205 204 195 189 198 196 198 215 202 212 213 210 207 210 211 206 208 209 207 203 201 186 214 198 180 150 109 103 111 113 130 142 148 157 150
293 238 335 35 49 61 289 299 280 224 237 323 206 208 215 209 209 204 207 201 202 207 207 206 213 211 209 212 212 214 210 214 215 208 210 205 200 226 226 226 200 176 169 124 120 176 187 185 173
231 269 77 93 35 201 287 265 260 274 261 255 258 233 206 221 218 216 214 213 212 210 208 213 208 214 212 213 215 217 217 216 222 219 212 213 210 227 231 230 223 226 233 239 242 240 220 210 199
6 348 253 191 204 201 218 264 238 265 265 243 249 249 218 228 228 221 216 215 213 221 218 216 217 208 212 217 220 220 221 222 223 227 220 220 218 235 234 234 228 233 237 248 243 216 217 231 217
271 270 219 221 198 172 198 278 231 256 245 241 231 239 245 231 227 226 229 225 219 217 225 215 225 222 217 215 220 221 224 228 228 230 232 228 227 225 235 235 234 233 224 247 248 226 220 210 224
233 207 232 344 146 167 163 263 285 259 227 240 233 245 247 245 233 238 232 234 231 221 220 224 224 232 223 219 222 221 224 232 237 235 236 232 230 233 233 230 232 229 228 227 230 228 215 210 237
207 264 203 156 177 135 185 277 50 11 290 274 267 259 251 246 242 244 240 231 234 229 225 229 230 230 227 225 223 226 226 225 230 239 237 233 231 230 235 234 234 229 230 231 233 225 222 227 224
228 215 245 234 185 184 216 253 278 285 275 264 259 258 257 253 244 245 250 250 230 235 230 232 231 233 230 225 226 226 228 229 230 233 236 236 236 231 232 233 230 235 232 229 239 227 219 227 226
306 316 326 355 154 165 230 258 255 269 272 267 263 263 261 259 256 252 249 253 246 235 233 229 228 232 231 226 226 227 230 229 230 238 238 232 238 239 244 239 236 232 234 244 240 228 216 212 220
199 269 283 285 107 168 279 275 268 256 258 250 253 259 260 263 262 255 248 244 248 243 233 228 231 233 235 232 233 232 235 236 242 242 246 242 233 238 242 240 238 237 237 246 237 243 208 212 217
229 228 257 255 208 227 281 274 257 249 243 257 258 259 263 264 265 259 257 245 245 245 239 232 233 236 238 236 233 233 233 237 240 243 244 242 237 237 236 241 243 241 238 241 246 249 220 231 221
256 282 246 265 338 234 67 285 292 301 284 236 251 261 260 271 271 266 250 248 244 249 252 246 238 234 237 236 235 234 235 235 243 250 251 248 239 234 237 238 243 242 243 237 240 251 230 229 231
224 13 45 29 275 299 197 261 260 228 253 255 250 261 265 273 261 246 241 246 252 251 251 248 243 237 235 237 237 237 238 240 245 248 249 249 244 233 235 236 238 243 236 248 239 250 232 243 239
128 91 76 73 209 275 172 198 214 219 224 231 242 266 246 228 251 248 243 241 236 243 240 247 244 240 237 238 239 239 241 244 244 247 248 250 247 237 232 235 238 238 243 236 247 244 237 239 237
163 142 243 308 159 239 89 287 233 285 230 232 280 287 272 283 255 264 271 254 242 243 247 249 245 239 236 236 238 240 244 246 247 249 253 252 250 243 237 237 238 235 236 240 242 240 240 249 247
198 176 171 203 193 272 351 239 260 220 344 310 299 289 286 276 280 282 273 264 256 250 246 242 238 234 233 236 240 243 245 249 250 249 255 256 254 253 250 245 238 237 239 244 244 244 250 251 247
190 216 230 327 90 8 227 271 285 226 215 252 270 283 286 291 273 288 268 262 255 253 247 247 245 237 237 243 245 248 249 251 251 251 251 259 259 255 252 248 241 241 242 239 246 251 246 252 245
175 197 100 241 196 232 263 269 248 298 288 252 313 313 351 325 299 262 256 252 239 227 220 208 201 211 230 242 251 257 258 256 254 251 252 256 261 261 257 249 244 246 242 246 245 248 248 243 244
134 228 218 169 181 176 262 257 168 136 107 60 37 359 340 333 320 272 265 233 213 193 181 171 161 216 291 269 263 268 269 265 259 254 254 256 259 259 259 254 252 253 244 242 250 253 240 245 238
216 216 193 167 234 218 220 263 139 116 98 56 21 33 350 346 334 259 251 217 203 186 171 172 315 298 307 292 286 278 273 272 269 262 258 259 258 256 255 254 250 248 246 247 248 245 255 244 240